Погода в Абыем

Россия / Республика Саха (Якутия)     68°23′32″N   145°04′33″E
темп.,
°C
ветер,
м/с
пор.,
м/с
влажн.,
%
обл.,
%
осадки,
мм/ч
давл.,
гПа
погр.,
м
27 февраля, сб
сб2723:00−35зюз1110070 0.0 103519
02:00−34з0010087 0.0 103519
05:00−34з1110092 0.1 103319
08:00−35з1110091 0.0 103419
11:00−32юз119791 0.1 103419
14:00−30з119499 0.0 1033158
17:00−32з119896 0.1 103219
20:00−35юз1110026 0.0 103219
28 февраля, вс
вс2823:00−36з1110042 0.0 103219
02:00−36ю0010081 0.0 103119
05:00−35зсз0010090 0.0 103019
08:00−36в00100100 0.0 103019
11:00−34сз0198100 0.0 102919
14:00−31сз009496 0.0 1029152
17:00−33з009780 0.0 102719
20:00−37зсз1110011 0.0 102819
1 марта, пн
пн123:00−37сз1110021 0.0 102819
02:00−38зсз1110013 0.0 102719
05:00−38сз1110029 0.0 102619
08:00−39сз111006 0.0 102619
11:00−36сз11969 0.0 102619
14:00−33зсз119138 0.0 1025170
17:00−35зсз129445 0.0 102419
20:00−38з129752 0.0 102619
2 марта, вт
вт223:00−38зсз229747 0.0 102519
02:00−38зюз119868 0.0 102619
05:00−38з129949 0.0 102618
08:00−39зюз1110033 0.0 102719
11:00−35зюз119623 0.0 102722
14:00−33юз119147 0.0 1028161
17:00−34ююз119547 0.0 102819
20:00−38ююз1110052 0.0 102919
3 марта, ср
ср323:00−38в0010038 0.0 103019
02:00−39в1110058 0.0 103019
05:00−39юв0010065 0.0 102919
08:00−39св1210095 0.0 102918
11:00−36всв119797 0.0 102835
14:00−34св129198 0.0 1027213
17:00−34св119599 0.0 102519
20:00−36ссв2397100 0.0 102419